Tracking 35237 objects as of 6-Sep-2026
HD Live streaming from Space Station
objects crossing your sky now

COSMOS 2421 DEB


COSMOS 2421 DEB is no longer on orbit


NORAD ID: 32920
Int'l Code: 2006-026FX
Launch date: June 25, 2006
Source: Commonwealth of Independent States (former USSR) (CIS)
Launch site: TYURATAM MISSILE AND SPACE COMPLEX (TTMTR)
Decay date: 2008-06-09

Note: This is SATELLITE DEBRIS
Your satellite tracking list
Your tracking list is empty




NASA's NSSDC Master Catalog

Two Line Element Set (TLE):
1 32920U 06026FX  08160.26663477  .02196959  33016-2  51625-2 0  9993
2 32920 065.0798 111.8571 0003292 223.3438 139.9526 15.97406046  4267
Source of the keplerian elements: AFSPC